Погода в Портороже

Словения     45°30′50″N   13°35′34″E
темп.,
°C
ветер,
м/с
пор.,
м/с
влажн.,
%
обл.,
%
осадки,
мм/ч
давл.,
гПа
погр.,
м
30 ноября, вт
вт3001:00+7с026069 0.0 1011604
04:00+6ююв11615 0.0 1013425
07:00+6в11648 0.0 1015305
10:00+6ссв01626 0.0 1017378
13:00+7з2348100 0.0 1016729
16:00+8юз685299 0.0 10151016
19:00+9зюз8105098 0.0 10141124
22:00+9зюз911513 0.0 10141040
1 декабря, ср
ср101:00+8зюз7959100 0.0 1014798
04:00+8зюз696369 0.0 1015762
07:00+9ююз566875 0.0 1015731
10:00+9ю1369100 0.0 1014476
13:00+9с1277100 0.1 1012355
16:00+10юз4680100 0.6 1009523
19:00+9зсз3387100 1.6 1007390
22:00+8ссв3292100 1.6 1006255
2 декабря, чт
чт201:00+9ююв2392100 3.5 1003275
04:00+11юз5986100 1.4 1001814
07:00+9ссз6692100 3.6 1000458
10:00+9в2292100 6.4 1000206
13:00+9с3394100 12.8 997311
16:00+9св2284100 3.9 997336
19:00+9сз2283100 4.3 998407
22:00+9всв3380100 0.2 999379
3 декабря, пт
пт301:00+8всв6782100 1.8 1000463
04:00+9всв81166100 0.9 10031203
07:00+8св121468100 1.3 10061121
10:00+8св111461100 0.0 10101374
13:00+9св101253100 0.0 10111380
16:00+8св10125426 0.0 10121081
19:00+7св912535 0.0 1014928
22:00+7св911543 0.0 1014799
4 декабря, сб
сб401:00+6ссв67565 0.0 1013658
04:00+6св4458100 0.0 1012415
07:00+5св235598 0.0 1011411
10:00+6ссз22515 0.0 1011551
13:00+6сз225560 0.0 1010677
16:00+6юв1158100 0.0 1010529
19:00+6юв2263100 0.0 1010453
22:00+6вюв3366100 0.0 1010327